Wind_Speed
42 43 44 45 46 48 50 51 52 53 54 56 58 59 60 62 63 63 62 63 63 63 63 64 64 63 62 60 58 57 54 53 51 48 45 44 43 42 40 37 36 34 33
40 40 41 42 42 45 48 49 50 51 52 54 57 59 59 59 60 61 61 61 62 62 63 63 64 63 63 61 60 59 57 55 53 50 47 45 44 43 40 39 37 35 33
39 39 39 39 40 42 45 47 48 50 51 52 55 57 57 56 57 58 59 60 60 61 61 60 62 63 63 62 61 60 58 56 53 51 48 45 44 42 41 40 38 35 34
39 38 39 38 38 39 42 45 46 48 49 50 52 53 54 53 53 55 57 57 58 59 60 60 60 61 62 61 59 60 60 58 55 52 49 46 44 43 42 41 39 36 35
38 38 38 37 37 38 40 42 43 44 45 46 48 50 51 51 50 52 54 56 57 57 57 58 59 59 60 59 58 59 59 57 56 53 50 47 45 44 43 42 40 38 36
38 39 38 37 36 37 38 40 40 41 42 43 44 46 49 50 49 50 53 55 56 56 56 57 58 58 58 58 58 59 58 57 55 54 52 48 45 44 44 42 40 39 38
40 39 38 36 36 35 37 40 41 40 39 40 41 43 46 48 48 49 51 53 55 55 55 56 56 57 57 57 57 59 58 57 55 54 52 49 46 43 44 43 41 40 39
40 39 38 37 37 35 36 38 39 38 37 38 39 41 43 45 47 47 48 51 53 54 54 55 55 55 56 56 57 59 58 57 55 54 52 50 48 44 45 44 42 41 39
40 38 37 37 37 37 37 37 36 36 36 36 36 37 39 41 44 46 47 49 51 54 53 53 52 54 56 56 56 57 57 56 55 53 52 52 49 46 45 45 43 41 39
40 38 37 37 36 36 36 35 35 36 35 34 34 35 36 39 41 43 45 47 50 52 52 52 51 52 55 55 55 56 56 56 55 53 52 52 50 47 45 45 42 41 40
40 38 37 38 36 35 35 35 35 33 31 31 32 32 34 35 36 38 42 44 48 51 50 49 49 52 54 53 52 55 55 55 54 53 52 52 50 46 45 44 42 41 40
40 39 39 39 37 35 34 33 32 31 29 28 29 31 32 33 33 35 40 41 44 47 48 48 48 51 52 50 50 53 54 54 53 51 51 50 49 47 45 43 42 41 40
41 39 39 39 37 35 33 32 31 30 27 26 27 29 30 30 30 33 37 38 41 44 46 46 46 48 50 49 49 52 53 52 51 51 51 50 49 47 45 43 41 40 38
41 40 39 38 37 34 32 31 29 28 25 25 26 27 28 28 29 31 33 35 38 42 43 43 45 47 46 46 48 49 51 50 49 50 50 49 49 47 44 42 40 39 38
41 40 39 37 35 33 30 30 28 26 23 24 25 25 27 27 28 30 31 34 37 40 41 41 44 44 42 43 45 47 47 48 47 48 49 48 46 44 42 41 40 39 36
40 39 38 37 35 32 29 29 27 24 22 22 23 25 26 27 28 28 30 33 36 38 39 40 43 42 40 41 43 44 44 44 45 45 46 46 46 44 42 41 39 36 35
41 40 38 37 34 31 28 27 25 23 22 21 23 24 25 26 27 29 30 32 34 36 38 39 40 42 41 40 40 43 43 43 43 43 44 44 44 44 41 38 36 35 35
41 39 38 36 33 30 28 27 25 24 23 21 22 23 24 24 25 27 29 30 32 34 35 36 38 40 40 39 40 41 41 41 41 41 41 42 43 42 39 37 36 36 35
41 39 38 35 31 29 27 26 24 24 24 23 22 23 22 23 25 27 30 31 32 31 32 35 37 39 40 40 40 40 41 40 39 38 38 40 41 39 38 37 36 35 34
41 39 37 35 31 28 27 26 24 24 24 23 23 23 23 24 26 26 29 32 32 32 33 35 35 37 39 40 40 39 39 39 38 38 38 38 37 36 37 37 36 35 33
40 38 37 35 32 29 28 27 25 23 23 23 22 22 23 24 25 26 29 30 31 32 33 34 36 37 39 39 38 38 37 37 37 38 37 36 36 36 37 36 35 34 33
40 38 36 34 32 29 28 27 26 25 24 23 23 23 24 25 26 26 28 29 29 30 32 34 35 36 37 38 38 38 36 36 36 36 37 36 36 37 36 36 34 33 32
39 37 36 34 30 28 27 26 26 26 25 24 23 23 23 24 25 26 28 29 30 31 32 32 33 34 35 36 37 37 36 35 35 35 35 36 36 36 35 34 34 33 33
38 36 35 33 30 28 27 27 26 25 24 23 24 24 24 24 25 26 27 29 30 30 31 31 32 33 33 33 34 35 35 34 34 34 35 35 35 35 34 33 33 32 32
36 35 34 32 29 29 28 27 26 25 23 22 23 24 24 24 26 27 28 28 29 31 31 30 29 31 32 33 33 33 34 34 33 34 34 34 33 33 33 32 33 32 31
35 34 33 31 29 28 27 26 25 24 22 22 23 24 24 24 25 27 28 28 28 30 30 31 30 30 31 32 32 32 32 32 32 32 33 33 32 31 31 31 31 30 29
Wind_Direction
290 283 278 276 273 270 266 265 263 263 262 260 257 255 252 249 247 246 244 244 243 243 243 242 240 239 240 240 242 241 240 241 242 242 243 246 247 246 248 252 254 257 262
294 287 282 279 277 274 269 267 264 264 264 262 258 255 253 250 248 245 243 243 242 241 240 240 239 238 237 238 239 240 239 240 240 240 241 243 244 245 247 250 254 257 260
297 292 287 283 280 277 274 271 267 266 265 263 259 255 252 249 247 244 242 240 240 239 238 238 237 235 235 236 236 237 236 238 238 238 240 242 243 245 248 250 252 256 259
298 295 291 286 283 280 279 275 271 270 267 264 260 256 252 248 245 243 240 238 237 237 236 235 235 234 234 233 234 235 234 234 235 236 238 239 243 245 247 248 251 254 259
301 298 294 289 287 285 283 280 276 272 268 266 263 256 251 246 244 241 238 237 236 236 235 234 234 233 231 231 231 232 232 232 233 235 237 238 241 244 245 246 249 252 257
302 300 296 292 289 288 287 285 280 276 272 268 264 257 250 245 243 240 237 236 234 234 235 233 232 231 230 229 229 231 230 231 232 233 234 236 239 243 245 246 248 253 256
304 301 299 294 291 289 288 286 282 278 272 268 264 257 250 245 242 241 238 236 233 233 233 232 231 230 229 228 229 229 228 229 230 231 232 234 236 239 243 246 248 252 255
306 302 300 296 293 291 289 289 284 280 275 267 262 256 250 246 243 240 238 236 233 230 230 231 230 229 228 227 228 227 226 228 229 230 231 232 235 238 242 246 248 251 254
309 304 301 297 295 293 291 289 283 280 275 267 261 256 249 245 242 239 239 236 232 228 228 228 228 227 226 226 227 227 225 227 228 228 231 232 235 238 241 244 246 250 254
312 308 304 299 297 297 294 288 285 280 275 267 260 253 247 243 242 242 237 235 230 227 227 228 228 227 225 224 226 225 225 227 227 227 231 233 235 237 240 243 246 249 252
313 310 306 304 300 299 297 291 288 283 275 265 254 247 246 246 245 242 237 234 231 228 226 226 226 225 223 223 225 225 225 226 227 229 230 232 234 235 239 241 245 246 250
314 311 309 306 301 299 296 291 286 283 276 264 251 245 245 244 246 242 237 234 231 228 226 226 225 223 221 222 224 223 224 226 227 228 229 231 233 235 238 242 244 246 250
314 311 309 305 303 301 297 290 285 281 274 265 256 250 247 246 244 240 235 234 229 226 224 224 222 219 220 222 223 223 224 224 226 228 229 231 233 235 239 241 243 245 248
314 312 309 307 304 303 298 292 289 281 271 265 259 253 247 244 240 237 235 232 227 224 224 224 221 218 220 221 221 222 222 222 225 227 228 231 233 235 237 239 241 244 247
313 312 311 307 305 303 298 294 290 283 271 265 259 251 245 242 240 235 234 230 225 223 224 223 220 220 221 219 219 220 221 223 225 227 229 231 232 233 235 238 241 243 246
312 311 311 307 304 302 298 294 289 285 277 268 257 249 245 242 240 236 233 230 226 225 226 223 220 220 219 216 217 218 221 225 225 226 228 230 231 232 235 237 239 242 245
311 310 310 307 302 299 296 291 284 282 277 268 258 251 247 243 241 238 231 227 224 225 223 222 221 218 215 215 216 218 221 224 224 225 227 228 230 231 231 234 236 241 244
311 311 309 305 302 297 293 287 282 277 276 270 258 251 247 244 241 235 228 222 220 221 220 221 220 216 216 217 217 218 220 221 223 224 225 227 227 229 230 234 237 239 243
311 311 308 305 301 295 291 287 281 276 273 267 256 252 251 245 240 236 227 223 221 221 220 219 219 218 217 218 219 220 221 221 221 222 223 224 226 229 230 233 236 238 242
309 308 305 302 299 293 288 285 282 276 270 262 256 252 249 242 237 236 232 227 225 224 222 218 218 217 217 220 221 221 221 221 221 221 221 221 224 226 229 231 235 239 243
308 306 303 301 297 291 285 282 279 274 268 260 254 254 248 242 239 237 232 228 228 226 221 217 218 218 218 219 221 221 220 220 222 221 221 222 223 225 228 230 234 239 242
306 304 302 299 296 291 286 280 276 272 267 260 253 251 248 243 239 235 229 227 226 223 219 218 219 218 217 217 219 219 218 219 220 221 219 221 224 225 228 231 235 239 242
306 302 300 298 293 289 285 280 273 269 266 258 251 249 246 239 235 231 226 225 224 220 218 218 219 216 215 216 217 218 217 218 219 218 219 221 222 224 227 231 234 238 240
304 301 298 296 292 287 283 280 272 267 264 254 247 244 240 234 231 228 224 221 220 219 216 216 216 217 218 215 214 215 215 216 216 217 219 221 223 224 228 231 234 237 239
302 299 297 295 291 287 284 278 272 267 260 249 242 238 236 232 228 224 221 219 218 217 214 213 212 214 215 214 213 214 216 216 218 219 222 224 224 226 228 233 235 238 241
300 297 294 293 290 286 283 278 270 263 255 245 238 235 233 231 228 222 219 219 216 215 213 212 209 209 210 211 212 214 215 216 217 219 221 223 225 227 229 232 234 237 242
Height
5626 5623 5620 5619 5618 5618 5618 5618 5619 5620 5620 5622 5624 5627 5631 5635 5640 5646 5652 5658 5664 5670 5678 5686 5693 5700 5708 5715 5721 5727 5733 5739 5744 5748 5753 5758 5761 5765 5769 5772 5775 5777 5778
5616 5612 5609 5607 5605 5604 5603 5603 5603 5603 5604 5605 5607 5610 5614 5618 5622 5627 5634 5640 5646 5652 5660 5667 5676 5684 5692 5699 5706 5713 5720 5727 5733 5738 5743 5748 5752 5756 5760 5764 5767 5769 5771
5606 5602 5599 5596 5595 5593 5591 5590 5589 5588 5588 5589 5590 5592 5595 5600 5604 5609 5616 5622 5629 5636 5643 5651 5659 5668 5676 5685 5692 5700 5707 5715 5721 5727 5733 5738 5743 5748 5752 5756 5759 5762 5763
5596 5593 5589 5586 5584 5581 5579 5577 5576 5574 5573 5573 5573 5575 5578 5583 5588 5593 5599 5606 5613 5620 5627 5636 5644 5652 5661 5670 5678 5686 5694 5701 5708 5715 5722 5729 5735 5740 5744 5748 5751 5753 5755
5587 5583 5579 5576 5574 5571 5568 5565 5563 5561 5559 5559 5558 5559 5563 5567 5573 5577 5584 5591 5598 5606 5613 5621 5629 5637 5646 5655 5664 5672 5680 5689 5697 5705 5711 5718 5725 5730 5735 5739 5742 5745 5747
5578 5573 5569 5566 5563 5560 5556 5553 5550 5549 5547 5546 5545 5545 5548 5553 5557 5562 5569 5576 5584 5592 5600 5607 5615 5624 5633 5642 5651 5660 5668 5677 5686 5694 5701 5708 5714 5720 5726 5730 5733 5736 5738
5569 5564 5560 5557 5553 5550 5546 5542 5539 5536 5534 5533 5532 5533 5536 5539 5544 5549 5555 5562 5570 5578 5587 5594 5602 5611 5620 5629 5639 5647 5656 5665 5674 5682 5690 5698 5704 5710 5716 5720 5723 5727 5729
5560 5556 5551 5547 5543 5540 5536 5532 5528 5525 5523 5522 5522 5522 5524 5527 5532 5537 5543 5550 5557 5566 5574 5582 5590 5598 5608 5617 5626 5635 5645 5653 5663 5671 5679 5687 5693 5700 5706 5710 5714 5718 5720
5553 5548 5543 5539 5534 5531 5527 5523 5518 5515 5513 5511 5511 5512 5514 5517 5521 5527 5532 5538 5545 5554 5562 5571 5578 5587 5596 5605 5614 5623 5633 5642 5652 5660 5668 5676 5682 5689 5695 5700 5705 5709 5712
5546 5540 5536 5531 5527 5522 5518 5514 5509 5506 5504 5502 5502 5503 5505 5509 5512 5516 5521 5527 5535 5543 5551 5560 5567 5575 5584 5594 5603 5612 5623 5632 5641 5649 5658 5665 5673 5679 5685 5690 5695 5699 5703
5539 5533 5529 5524 5519 5514 5509 5505 5501 5498 5495 5494 5494 5495 5498 5501 5504 5507 5512 5518 5526 5533 5540 5549 5557 5565 5574 5583 5592 5602 5612 5621 5631 5639 5648 5655 5663 5670 5675 5680 5685 5690 5694
5531 5526 5521 5515 5511 5506 5502 5498 5494 5491 5488 5486 5487 5489 5491 5494 5496 5500 5504 5510 5516 5523 5531 5539 5547 5556 5565 5574 5583 5593 5602 5612 5621 5630 5638 5645 5653 5659 5665 5671 5676 5681 5684
5524 5519 5513 5508 5503 5499 5494 5491 5487 5484 5482 5481 5481 5483 5485 5487 5489 5493 5498 5503 5508 5515 5523 5530 5538 5547 5556 5566 5575 5584 5593 5602 5611 5620 5629 5636 5643 5650 5656 5662 5667 5672 5675
5517 5512 5506 5501 5496 5491 5487 5483 5481 5478 5476 5475 5476 5477 5479 5481 5484 5488 5492 5496 5502 5509 5516 5523 5531 5540 5549 5557 5566 5575 5584 5593 5602 5610 5619 5627 5634 5641 5647 5653 5659 5663 5666
5510 5505 5499 5494 5489 5485 5480 5477 5474 5472 5471 5470 5471 5472 5474 5476 5479 5483 5487 5491 5496 5502 5509 5516 5524 5533 5541 5549 5557 5566 5575 5584 5592 5601 5609 5617 5625 5632 5638 5645 5650 5654 5658
5503 5498 5492 5487 5482 5478 5474 5471 5468 5466 5465 5465 5466 5467 5469 5471 5474 5478 5482 5486 5491 5497 5503 5510 5518 5526 5534 5542 5550 5559 5567 5575 5584 5592 5600 5608 5616 5623 5630 5636 5641 5646 5650
5495 5490 5485 5480 5476 5472 5468 5465 5463 5461 5460 5460 5460 5462 5464 5466 5469 5472 5477 5481 5487 5492 5498 5505 5512 5520 5527 5535 5544 5552 5560 5568 5576 5584 5592 5600 5608 5615 5621 5627 5632 5637 5641
5487 5482 5477 5473 5469 5465 5462 5459 5458 5456 5455 5455 5455 5456 5458 5461 5464 5468 5472 5476 5482 5487 5494 5500 5506 5513 5521 5529 5537 5545 5553 5561 5569 5576 5584 5592 5600 5607 5613 5618 5624 5629 5633
5479 5474 5469 5465 5462 5458 5455 5453 5452 5451 5450 5450 5450 5451 5453 5455 5459 5463 5467 5472 5477 5483 5488 5494 5501 5508 5515 5522 5530 5538 5546 5553 5561 5569 5576 5584 5592 5598 5605 5611 5616 5621 5625
5470 5465 5462 5458 5454 5451 5449 5447 5446 5445 5444 5444 5445 5446 5448 5451 5454 5458 5462 5467 5472 5478 5483 5489 5496 5502 5509 5517 5524 5532 5539 5546 5554 5562 5569 5577 5584 5590 5596 5602 5608 5613 5618
5462 5457 5453 5450 5447 5444 5441 5440 5439 5438 5438 5438 5439 5440 5443 5446 5449 5453 5457 5462 5467 5472 5478 5484 5490 5497 5504 5511 5517 5524 5532 5540 5547 5555 5562 5570 5577 5583 5589 5595 5601 5606 5610
5453 5449 5445 5442 5439 5436 5434 5433 5432 5431 5431 5432 5434 5435 5437 5440 5444 5448 5452 5457 5462 5468 5473 5479 5486 5492 5497 5504 5511 5518 5525 5533 5540 5548 5556 5563 5570 5576 5582 5588 5593 5597 5601
5445 5440 5437 5434 5431 5429 5427 5425 5425 5424 5424 5425 5427 5429 5431 5435 5438 5443 5447 5452 5457 5463 5468 5474 5480 5486 5492 5498 5504 5512 5518 5526 5534 5541 5549 5556 5562 5569 5574 5580 5585 5589 5593
5436 5432 5428 5426 5424 5421 5419 5418 5417 5417 5417 5419 5421 5423 5426 5430 5434 5438 5442 5447 5452 5457 5463 5469 5474 5480 5486 5492 5499 5506 5513 5520 5527 5534 5541 5548 5554 5561 5567 5572 5577 5582 5587
5427 5423 5420 5418 5415 5413 5412 5410 5410 5410 5410 5412 5414 5417 5420 5424 5428 5432 5437 5441 5447 5452 5457 5463 5469 5475 5481 5488 5494 5501 5508 5515 5522 5528 5535 5541 5547 5553 5559 5565 5570 5575 5579
5419 5415 5412 5410 5407 5405 5404 5403 5402 5403 5404 5406 5408 5411 5415 5419 5423 5427 5432 5436 5441 5446 5452 5458 5464 5470 5477 5482 5489 5496 5503 5510 5516 5523 5529 5535 5541 5547 5553 5558 5563 5568 5573